AQI (36)

Current Conditions for Foresthill, CA. Sunny, Dry   
Visibility: 10 miles
Foresthill Advisory text:

  Summary / Temperature 

Current Temperature
42.3°F
5.7°C
(24/hr Ago)
51.2°F
(Apparent temp)
39.3°F
Cool
Wind Chill Graphs
42.3°F 
Wind Chill-Avg
41.8°F 5.4°C
 --- Virtual Temp: 43.7°F ---

 Temp Rate:

 24/hr Difference:

 Avg Running Temp:

 Todays High:

 Todays Low:

 Y-days High:

 Y-days Low:

 Todays WChill:

 Y-days WChill:

 Evapotranspiration:

+0.5°F/hr 

-8.9°F

41.8°F

42.3°F 2:08pm

37.7°F 8:38am

52.7°F 1:34pm

41.6°F 11:56pm

32.9°F 12:29am

34.9°F 11:20pm

0.038 in

115' Above Ground

 Temperature:

 6'AGL VRS 115'AGL:

 Avg Running Temp:

 Humidity:

 Todays High:

 Todays Low:

 Y-days High:

 Y-days Low:

45.0°F 

+2.7°F

44.5°F

65% 

45.0°F 1:50pm

37.0°F 7:16am

52.0°F 8:13am

41.0°F 11:20pm

Temp & Humidity Graphs

  Wind 

Wind Speed

 Calm

Gusting to

 1.0 mph

Calm

261°  

Calm

 Avg speed:

 Wind Run:

 Peak Gust:

Calm 

4.0 miles

  17.0 mph 12:24am

  Almanac  

Moon age: 2 days,14 hours,6 minutes,7%

Waxing Crescent
7%
Illuminated
2 days in cycle

 Moonrise:

 Moonset:

 Sunrise:

 Sunset:

 Solar Noon:

8:54am

7:50pm

7:16am

5:07pm

12:14pm

1min 34s more daylight tomorrow 

  Solar Radiation 

(Current Solar)
  316 W/m2 (110%)
(Todays High)
 735 W/m2@10:56am
Feels like: 46.2°F in the sun

Rain

 Rain Today:

 Rain Rate (/hr):

 Rain last hour:

 Rain Yesterday:

 This Month:

 Season Total:

1 Day Since Last Dry Day

0.11 in

0.000 in

0.00 in

1.40 in

6.89 in

20.20 in

Updated Time

Updated: 1/19/18  3:14pm

(Updated  sec ago)

Humidity & Barometer

 Humidity:

 Wetbulb:

 Dew Point:

 Barometer:

78% 

39.3°F 

35.9°F 

30.083 inHg 

 Baro Trend:  Steady 
Northern Calif
Preparedness
Fire 
Level 

    UV Index  

(Current UV)
0.6  Low
(Todays High) @ 11:55am
2.1   Low

National Weather Service Forecast

This
Afternoon
This Afternoon: Slight Chance Rain And Snow Showers
Slight Chance Rain And Snow Showers
Tonight

Tonight: Isolated Rain And Snow Showers then Mostly Cloudy
Isolated Rain And Snow Showers
Saturday

Saturday: Mostly Sunny
Mostly Sunny
Saturday
Night
Saturday Night: Mostly Cloudy
Mostly Cloudy
Sunday

Sunday: Rain And Snow Likely
Rain And Snow Likely
Sunday
Night
Sunday Night: Light Rain
Light Rain
Hi 45 °F Lo 31 °F Hi 46 °F Lo 33 °F Hi 46 °F Lo 41 °F

Foresthill Probe 2 Stats  
Foresthill Probe 2: is located on Thomas Street
at 3000 feet. The main Foresthill Weather site
is located on Melody ln at the 2860 foot elevation

Calm
42.5°F
5.8°C
Temp Rate:
+0.5°F
Calm
Gusting to
2.0 mph
(Humidity)
74%
Wind from NW
309°  NW
Updated: 19/01/18 - 15:11:06
 Todays High: 43.2°F 14:43
 Todays Low: 37.2°F 08:36
 Rain Today: 0.14 in
 Season Total: 20.98 in

Foresthill Wx: Monthly,Yearly, Highs and Lows 

Foresthill  
This Weather Data is coming from the main Foresthill
Weather site located on Melody ln at the 2860 foot
elevation
Not Foresthill Probe 2
Weather Data
Month
  High
Month
  Low
Year
High
Year
Low
Temp 63.0°F
1/14/18
37.7°F
1/19/18
63.0°F
1/14/18
37.7°F
1/19/18
Humidity 100%
1/8/18
37%
1/1/18
100%
1/8/18
37%
1/1/18
Heat Index 64.3°F
1/14/18
44.1°F
1/19/18
64.3°F
1/14/18
44.1°F
1/19/18
Wind Chill 63.0°F
1/14/18
31.8°F
1/7/18
63.0°F
1/14/18
31.8°F
1/7/18
Wind Gust 31 mph
1/16/18
0 mph
1/1/18
31 mph
1/16/18
0 mph
1/1/18
Barometer 30.44 in
1/12/18
29.63 in
1/9/18
30.44 in
1/12/18
29.63 in
1/9/18
ET 0.08 in
1/1/18
0.00 in
1/1/18
0.08 in
1/1/18
0.00 in
1/1/18
Dew Point 52.5°F
1/5/18
27.1°F
1/1/18
52.5°F
1/5/18
27.1°F
1/1/18
Pacific Satellite US Radar Satellite Imagery Sacramento,CA.  (click to enlarge)
NWS Weather Forecast - Summary
Updated: Fri Jan 19 2018 .DISC - 2:42pm (PST)
Current Interstate Highway Conditions for I-80 & US-50

[I 80: IN THE SAN FRANCISCO BAY AREA - SOLANO CO]
no traffic restrictions are reported for this area.


[I 80: IN THE NORTHERN CALIFORNIA AREA & SIERRA NEVADA]
no traffic restrictions are reported for this area.

[US 50: IN THE SACRAMENTO VALLEY & THE LAKE TAHOE BASIN]
no traffic restrictions are reported for this area.
NWS Weather Forecast: This Afternoon and Tonight (Updated: Fri, 19-Jan-2018 7:56am PST)
This
Afternoon
This Afternoon: Slight Chance Rain And Snow Showers
Slight Chance Rain And Snow Showers

Hi 45 °F
NWS forecast: A slight chance of rain and snow showers. Partly sunny. High near 45, with temperatures falling to around 40 in the afternoon. West southwest wind around 6 mph. Chance of precipitation is 20%. New rainfall amounts less than a tenth of an inch possible.
Tonight

Tonight: Isolated Rain And Snow Showers then Mostly Cloudy
Isolated Rain And Snow Showers

Lo 31 °F
NWS forecast: Isolated rain and snow showers before 10pm. Mostly cloudy, with a low around 31. North northeast wind around 6 mph. Chance of precipitation is 20%. New rainfall amounts less than a tenth of an inch possible.
YR.NO 10 Day Weather forecast
Last update: 01/18/2018 @ 23:38
Next update: 01/20/2018 @ 00:00
Provided by: 22
      Temperature Precipitation Pressure Wind  
Today
01/19/2018
14:00 18:00 43°F   30.09 inHg Light breeze from southwest 5 mph
  18:00 00:00 36°F   30.09 inHg Light air from west-northwest 2 mph
    (Click to enlarge)
meteogram

    Forecast for next 9 days

      Temperature Precip Pressure Wind  
Saturday
01/20/2018
00:00 06:00 25°F   30.11 inHg Light breeze from east-northeast 6 mph
  06:00 12:00 25°F   30.08 inHg Gentle breeze from east-northeast 8 mph
  12:00 18:00 46°F   30.09 inHg Light breeze from west 5 mph
  18:00 00:00 34°F   30.17 inHg Light air from east-southeast 1 mph
      Temperature Precip Pressure Wind  
Sunday
01/21/2018
00:00 06:00 25°F   30.26 inHg Light breeze from east-northeast 5 mph
  06:00 12:00 25°F   30.30 inHg Light breeze from east-northeast 5 mph
  12:00 18:00 45°F   30.34 inHg Light breeze from south-southwest 5 mph
  16:00 22:00 41°F   30.34 inHg Light breeze from south-southwest 5 mph
  22:00 04:00 37°F 0.17 in 30.35 inHg Light breeze from east-southeast 5 mph
      Temperature Precip Pressure Wind  
Monday
01/22/2018
04:00 10:00 36°F 0.04 in 30.32 inHg Light breeze from east-southeast 6 mph
  10:00 16:00 41°F 0.03 in 30.32 inHg Light breeze from southeast 6 mph
  16:00 22:00 41°F 0.03 in 30.27 inHg Light breeze from south 5 mph
  22:00 04:00 39°F   30.29 inHg Light air from east-northeast 2 mph
      Temperature Precip Pressure Wind  
Tuesday
01/23/2018
04:00 10:00 37°F   30.23 inHg Light air from northeast 2 mph
  10:00 16:00 41°F 0.07 in 30.22 inHg Light air from southeast 1 mph
  16:00 22:00 41°F 0.17 in 30.15 inHg Light air from east-southeast 2 mph
  22:00 04:00 39°F 0.34 in 30.14 inHg Light breeze from south-southeast 7 mph
      Temperature Precip Pressure Wind  
Wednesday
01/24/2018
04:00 10:00 41°F 0.26 in 30.06 inHg Gentle breeze from south-southeast 8 mph
  10:00 16:00 41°F 0.44 in 30.02 inHg Gentle breeze from south-southeast 11 mph
  16:00 22:00 39°F 0.39 in 29.93 inHg Moderate breeze from south-southwest 13 mph
  22:00 04:00 34°F 0.13 in 30.01 inHg Gentle breeze from south-southwest 11 mph
      Temperature Precip Pressure Wind  
Thursday
01/25/2018
04:00 10:00 28°F 0.06 in 30.09 inHg Light breeze from south 7 mph
  10:00 16:00 30°F 0.22 in 30.14 inHg Gentle breeze from south 9 mph
  16:00 22:00 32°F 0.15 in 30.09 inHg Light breeze from south 6 mph
  22:00 04:00 28°F 0.13 in 30.13 inHg Light breeze from southeast 6 mph
      Temperature Precip Pressure Wind  
Friday
01/26/2018
04:00 10:00 28°F 0.05 in 30.14 inHg Light air from east 3 mph
  10:00 16:00 32°F 0.04 in 30.25 inHg Light air from south 3 mph
  16:00 22:00 34°F   30.27 inHg Light air from southwest 1 mph
  22:00 04:00 23°F   30.33 inHg Light breeze from east-northeast 4 mph
      Temperature Precip Pressure Wind  
Saturday
01/27/2018
04:00 10:00 16°F   30.34 inHg Light breeze from east-northeast 6 mph
  10:00 16:00 39°F   30.43 inHg Light air from east 2 mph
  16:00 22:00 41°F   30.40 inHg Light air from west-southwest 2 mph
  22:00 04:00 27°F   30.44 inHg Light breeze from east-northeast 4 mph
      Temperature Precip Pressure Wind  
Sunday
01/28/2018
04:00 10:00 23°F   30.43 inHg Light breeze from east-northeast 4 mph
  10:00 16:00 46°F   30.43 inHg Light air from east-northeast 2 mph

NOAA Local Storm Report
MAHTO SDSU   ( More )
DATE
01/16/2018
TIME
1:00 AM
COUNTY
CORSON
STATE
SD
GEOGRAPHIC
45.74N 100.66W
SOURCE
MESONET
EXTR WIND CHILL M-38 F
mesonet station mhts2, mahto sdsu.
How Close Are We To this Month's Temperature Record ?
Updated Friday, Jan 19, 2018- 3:10:00 PM

Current Temperature: 42.3°F

January's High: Temperature Record 71.3°F - Set on Sat, Jan 24, 2015 - 3:19:00 PM
We are currently 29°F Less than this Month's record High

January's Low: Temperature Record 24.7°F - Set on Sun, Jan 13, 2013 - 7:29:00 AM
We are currently 17.6°F More than this Month's record Low

Weather History For Friday, January 19, 2018


On this Day - In Weather History ...
Data courtesy of weatherforyou.com
powered by Cumulus v1.9.3 (1059)
Ambient Weather VWS v14.00
Top Contact Website Map Copyright © 2007 - 2018 Foresthillweather.com Never base important decisions on this or any weather information obtained from the Internet